Location: Pasadena, ca
(34.1243°N, 118.1037°W)
Time: 12:12:11
(UTC-08:00)

Hubble Space Telescope - Pass Details

Date: 16 November 2017
Orbit: 537 x 541 km, 28.5° (Epoch: 22 November)

Event Time Altitude Azimuth Distance (km) Brightness Sun altitude
Exits shadow 04:58:05 - 210° (SSW) 1,846 3.3 -18.3°
Reaches altitude 10° 04:58:19 10° 208° (SSW) 1,777 3.2 -18.3°
Maximum altitude 05:01:16 19° 162° (SSE) 1,303 3.1 -17.7°
Drops below altitude 10° 05:04:13 10° 116° (ESE) 1,781 4.6 -17.1°
Sets 05:06:58 0° 98° (E) 2,674 6.1 -16.5°
